Year,Month,Day,Hour,Minute,Value (Times are PST for temperature in C)
2008,11,20,00,00,1.80
2008,11,20,00,01,1.80
2008,11,20,00,02,1.80
2008,11,20,00,03,1.80
2008,11,20,00,04,1.80
2008,11,20,00,05,1.80
2008,11,20,00,06,1.80
2008,11,20,00,07,1.80
2008,11,20,00,08,1.80
2008,11,20,00,09,1.80
2008,11,20,00,10,1.80
2008,11,20,00,11,1.80
2008,11,20,00,12,1.80
2008,11,20,00,13,1.80
2008,11,20,00,14,1.80
2008,11,20,00,15,1.70
2008,11,20,00,16,1.70
2008,11,20,00,17,1.70
2008,11,20,00,18,1.70
2008,11,20,00,19,1.70
2008,11,20,00,20,1.70
2008,11,20,00,21,1.60
2008,11,20,00,22,1.60
2008,11,20,00,23,1.60
2008,11,20,00,24,1.60
2008,11,20,00,25,1.60
2008,11,20,00,26,1.60
2008,11,20,00,27,1.60
2008,11,20,00,28,1.50
2008,11,20,00,29,1.50
2008,11,20,00,30,1.40
2008,11,20,00,31,1.40
2008,11,20,00,32,1.50
2008,11,20,00,33,1.60
2008,11,20,00,34,1.60
2008,11,20,00,35,1.60
2008,11,20,00,36,1.70
2008,11,20,00,37,1.80
2008,11,20,00,38,2.00
2008,11,20,00,39,2.20
2008,11,20,00,40,2.20
2008,11,20,00,41,2.30
2008,11,20,00,42,2.30
2008,11,20,00,43,2.30
2008,11,20,00,44,2.30
2008,11,20,00,45,2.30
2008,11,20,00,46,2.20
2008,11,20,00,47,2.10
2008,11,20,00,48,2.10
2008,11,20,00,49,2.00
2008,11,20,00,50,1.90
2008,11,20,00,51,1.90
2008,11,20,00,52,1.80
2008,11,20,00,53,1.80
2008,11,20,00,54,1.70
2008,11,20,00,55,1.70
2008,11,20,00,56,1.60
2008,11,20,00,57,1.60
2008,11,20,00,58,1.60
2008,11,20,00,59,1.70
2008,11,20,01,00,1.70
2008,11,20,01,01,1.80
2008,11,20,01,02,1.80
2008,11,20,01,03,1.80
2008,11,20,01,04,1.80
2008,11,20,01,05,1.80
2008,11,20,01,06,1.80
2008,11,20,01,07,1.80
2008,11,20,01,08,1.80
2008,11,20,01,09,1.90
2008,11,20,01,10,1.90
2008,11,20,01,11,1.90
2008,11,20,01,12,2.00
2008,11,20,01,13,2.00
2008,11,20,01,14,1.90
2008,11,20,08,02,3.90
2008,11,20,08,03,4.00
2008,11,20,08,04,4.00
2008,11,20,08,05,4.10
2008,11,20,08,06,4.10
2008,11,20,08,07,4.20
2008,11,20,08,08,4.20
2008,11,20,08,09,4.20
2008,11,20,08,10,4.30
2008,11,20,08,11,4.30
2008,11,20,08,12,4.30
2008,11,20,08,13,4.30
2008,11,20,08,14,4.30
2008,11,20,08,15,4.30
2008,11,20,08,16,4.30
2008,11,20,08,17,4.30
2008,11,20,08,18,4.30
2008,11,20,08,19,4.30
2008,11,20,08,20,4.30
2008,11,20,08,21,4.30
2008,11,20,08,22,4.30
2008,11,20,08,23,4.30
2008,11,20,08,24,4.30
2008,11,20,08,25,4.30
2008,11,20,08,26,4.30
2008,11,20,08,27,4.30
2008,11,20,08,28,4.30
2008,11,20,08,29,4.30
2008,11,20,08,30,4.40
2008,11,20,08,31,4.40
2008,11,20,08,32,4.40
2008,11,20,08,33,4.50
2008,11,20,08,34,4.50
2008,11,20,08,35,4.50
2008,11,20,08,36,4.50
2008,11,20,08,37,4.50
2008,11,20,08,38,4.50
2008,11,20,08,39,4.50
2008,11,20,08,40,4.40
2008,11,20,08,41,4.40
2008,11,20,08,42,4.40
2008,11,20,08,43,4.40
2008,11,20,08,44,4.40
2008,11,20,08,45,4.40
2008,11,20,08,46,4.40
2008,11,20,08,47,4.40
2008,11,20,08,48,4.40
2008,11,20,08,49,4.40
2008,11,20,08,50,4.40
2008,11,20,08,51,4.40
2008,11,20,08,52,4.50
2008,11,20,08,53,4.50
2008,11,20,08,54,4.50
2008,11,20,08,55,4.50
2008,11,20,08,56,4.50
2008,11,20,08,57,4.50
2008,11,20,08,58,4.50
2008,11,20,08,59,4.50
2008,11,20,09,00,4.50
2008,11,20,09,01,4.60
2008,11,20,09,02,4.60
2008,11,20,09,03,4.60
2008,11,20,09,04,4.60
2008,11,20,09,05,4.60
2008,11,20,09,06,4.60
2008,11,20,09,07,4.60
2008,11,20,09,08,4.60
2008,11,20,09,09,4.60
2008,11,20,09,10,4.60
2008,11,20,09,11,4.70
2008,11,20,09,12,4.70
2008,11,20,09,13,4.70
2008,11,20,09,14,4.70
2008,11,20,09,15,4.70
2008,11,20,09,16,4.70
2008,11,20,09,17,4.80
2008,11,20,09,18,4.80
2008,11,20,09,19,4.80
2008,11,20,09,20,4.80
2008,11,20,09,21,4.80
2008,11,20,09,22,4.80
2008,11,20,09,23,4.80
2008,11,20,09,24,4.80
2008,11,20,09,25,4.80
2008,11,20,09,26,4.80
2008,11,20,09,27,4.90
2008,11,20,09,28,4.80
2008,11,20,09,29,4.80
2008,11,20,09,30,4.80
2008,11,20,09,31,4.80
2008,11,20,09,32,4.90
2008,11,20,09,33,4.90
2008,11,20,09,34,4.90
2008,11,20,09,35,4.90
2008,11,20,09,36,5.00
2008,11,20,09,37,5.10
2008,11,20,09,38,5.30
2008,11,20,09,39,5.50
2008,11,20,09,40,5.90
2008,11,20,09,41,6.20
2008,11,20,09,42,6.50
2008,11,20,09,43,6.60
2008,11,20,09,44,6.80
2008,11,20,09,45,6.80
2008,11,20,09,46,6.90
2008,11,20,09,47,6.90
2008,11,20,09,48,6.90
2008,11,20,09,49,6.90
2008,11,20,09,50,6.90
2008,11,20,09,51,6.90
2008,11,20,09,52,6.80
2008,11,20,09,53,6.80
2008,11,20,09,54,6.80
2008,11,20,09,55,6.80
2008,11,20,09,56,6.80
2008,11,20,09,57,6.70
2008,11,20,09,58,6.70
2008,11,20,09,59,6.70
2008,11,20,10,00,6.60
2008,11,20,10,01,6.60
2008,11,20,10,02,6.50
2008,11,20,10,03,6.50
2008,11,20,10,04,6.40
2008,11,20,10,05,6.40
2008,11,20,10,06,6.40
2008,11,20,10,07,6.40
2008,11,20,10,08,6.40
2008,11,20,10,09,6.40
2008,11,20,10,10,6.40
2008,11,20,10,11,6.40
2008,11,20,10,12,6.40
2008,11,20,10,13,6.30
2008,11,20,10,14,6.30
2008,11,20,10,15,6.30
2008,11,20,10,16,6.30
2008,11,20,10,17,6.30
2008,11,20,10,18,6.30
2008,11,20,10,19,6.30
2008,11,20,10,20,6.40
2008,11,20,10,21,6.40
2008,11,20,10,22,6.40
2008,11,20,10,23,6.40
2008,11,20,10,24,6.40
2008,11,20,10,25,6.40
2008,11,20,10,26,6.40
2008,11,20,10,27,6.40
2008,11,20,10,28,6.40
2008,11,20,10,29,6.50
2008,11,20,10,30,6.50
2008,11,20,10,31,6.50
2008,11,20,10,32,6.50
2008,11,20,10,33,6.50
2008,11,20,10,34,6.50
2008,11,20,10,35,6.50
2008,11,20,10,36,6.60
2008,11,20,10,37,6.60
2008,11,20,10,38,6.60
2008,11,20,10,39,6.60
2008,11,20,10,40,6.60
2008,11,20,10,41,6.60
2008,11,20,10,42,6.60
2008,11,20,10,43,6.60
2008,11,20,10,44,6.60
2008,11,20,10,45,6.60
2008,11,20,10,46,6.60
2008,11,20,10,47,6.60
2008,11,20,10,48,6.60
2008,11,20,10,49,6.60
2008,11,20,10,50,6.60
2008,11,20,10,51,6.70
2008,11,20,10,52,6.70
2008,11,20,10,53,6.70
2008,11,20,10,54,6.70
2008,11,20,10,55,6.70
2008,11,20,10,56,6.70
2008,11,20,10,57,6.70
2008,11,20,10,58,6.70
2008,11,20,10,59,6.70
2008,11,20,11,00,6.70
2008,11,20,11,01,6.70
2008,11,20,11,02,6.70
2008,11,20,11,03,6.80
2008,11,20,11,04,6.80
2008,11,20,11,05,6.80
2008,11,20,11,06,6.90
2008,11,20,11,07,6.90
2008,11,20,11,08,6.90
2008,11,20,11,09,7.00
2008,11,20,11,10,7.00
2008,11,20,11,11,7.00
2008,11,20,11,12,7.00
2008,11,20,11,13,7.00
2008,11,20,11,14,7.00
2008,11,20,11,15,7.00
2008,11,20,11,16,7.10
2008,11,20,11,17,7.10
2008,11,20,11,18,7.10
2008,11,20,11,19,7.10
2008,11,20,11,20,7.10
2008,11,20,11,21,7.10
2008,11,20,11,22,7.10
2008,11,20,11,23,7.10
2008,11,20,11,24,7.10
2008,11,20,11,25,7.10
2008,11,20,11,26,7.20
2008,11,20,11,27,7.20
2008,11,20,11,28,7.20
2008,11,20,11,29,7.20
2008,11,20,11,30,7.20
2008,11,20,11,31,7.20
2008,11,20,11,32,7.20
2008,11,20,11,33,7.20
2008,11,20,11,34,7.20
2008,11,20,11,35,7.30
2008,11,20,11,36,7.30
2008,11,20,11,37,7.30
2008,11,20,11,38,7.30
2008,11,20,11,39,7.40
2008,11,20,11,40,7.40
2008,11,20,11,41,7.50
2008,11,20,11,42,7.50
2008,11,20,11,43,7.60
2008,11,20,11,44,7.60
2008,11,20,11,45,7.60
2008,11,20,11,46,7.80
2008,11,20,11,47,7.90
2008,11,20,11,48,8.00
2008,11,20,11,49,8.10
2008,11,20,11,50,8.20
2008,11,20,11,51,8.30
2008,11,20,11,52,8.40
2008,11,20,11,53,8.50
2008,11,20,11,54,8.70
2008,11,20,11,55,8.80
2008,11,20,11,56,9.00
2008,11,20,11,57,9.30
2008,11,20,11,58,9.50
2008,11,20,11,59,9.70
2008,11,20,12,00,9.80
2008,11,20,12,01,10.00
2008,11,20,12,02,10.20
2008,11,20,12,03,10.40
2008,11,20,12,04,10.50
2008,11,20,12,05,10.60
2008,11,20,12,06,10.70
2008,11,20,12,07,10.80
2008,11,20,12,08,10.80
2008,11,20,12,09,10.90
2008,11,20,12,10,10.90
2008,11,20,12,11,10.90
2008,11,20,12,12,10.90
2008,11,20,12,13,10.90
2008,11,20,12,14,11.00
2008,11,20,12,15,11.00
2008,11,20,12,16,11.00
2008,11,20,12,17,11.00
2008,11,20,12,18,11.00
2008,11,20,12,19,11.10
2008,11,20,12,20,11.10
2008,11,20,12,21,11.10
2008,11,20,12,22,11.10
2008,11,20,12,23,11.10
2008,11,20,12,24,11.10
2008,11,20,12,25,11.10
2008,11,20,12,26,11.10
2008,11,20,12,27,11.10
2008,11,20,12,28,11.10
2008,11,20,12,29,11.10
2008,11,20,12,30,11.10
2008,11,20,12,31,11.10
2008,11,20,12,32,11.10
2008,11,20,12,33,11.10
2008,11,20,12,34,11.10
2008,11,20,12,35,11.10
2008,11,20,12,36,11.10
2008,11,20,12,37,11.10
2008,11,20,12,38,11.10
2008,11,20,12,39,11.10
2008,11,20,12,40,11.10
2008,11,20,12,41,11.10
2008,11,20,12,42,11.10
2008,11,20,12,43,11.10
2008,11,20,12,44,11.10
2008,11,20,12,45,11.10
2008,11,20,12,46,11.10
2008,11,20,12,47,11.10
2008,11,20,12,48,11.10
2008,11,20,12,49,11.20
2008,11,20,12,50,11.20
2008,11,20,12,51,11.20
2008,11,20,12,52,11.20
2008,11,20,12,53,11.20
2008,11,20,12,54,11.20
2008,11,20,12,55,11.20
2008,11,20,12,56,11.20
2008,11,20,12,57,11.20
2008,11,20,12,58,11.20
2008,11,20,12,59,11.20
2008,11,20,13,00,11.20
2008,11,20,13,01,11.20
2008,11,20,13,02,11.20
2008,11,20,13,03,11.20
2008,11,20,13,04,11.20
2008,11,20,13,05,11.20
2008,11,20,13,06,11.20
2008,11,20,13,07,11.20
2008,11,20,13,08,11.20
2008,11,20,13,09,11.20
2008,11,20,13,10,11.20
2008,11,20,13,11,11.20
2008,11,20,13,12,11.20
2008,11,20,13,13,11.20
2008,11,20,13,14,11.20
2008,11,20,13,15,11.20
2008,11,20,13,16,11.20
2008,11,20,13,17,11.20
2008,11,20,13,18,11.20
2008,11,20,13,19,11.20
2008,11,20,13,20,11.20
2008,11,20,13,21,11.20
2008,11,20,13,22,11.10
2008,11,20,13,23,11.10
2008,11,20,13,24,11.10
2008,11,20,13,25,11.10
2008,11,20,13,26,11.10
2008,11,20,13,27,11.10
2008,11,20,13,28,11.10
2008,11,20,13,29,11.10
2008,11,20,13,30,11.10
2008,11,20,13,31,11.10
2008,11,20,13,32,11.10
2008,11,20,13,33,11.10
2008,11,20,13,34,11.10
2008,11,20,13,35,11.10
2008,11,20,13,36,11.00
2008,11,20,13,37,11.00
2008,11,20,13,38,10.90
2008,11,20,13,39,10.90
2008,11,20,13,40,10.90
2008,11,20,13,41,10.80
2008,11,20,13,42,10.80
2008,11,20,13,43,10.80
2008,11,20,13,44,10.80
2008,11,20,13,45,10.70
2008,11,20,13,46,10.70
2008,11,20,13,47,10.70
2008,11,20,13,48,10.60
2008,11,20,13,49,10.60
2008,11,20,13,50,10.60
2008,11,20,13,51,10.50
2008,11,20,13,52,10.50
2008,11,20,13,53,10.40
2008,11,20,13,54,10.40
2008,11,20,13,55,10.40
2008,11,20,13,56,10.30
2008,11,20,13,57,10.30
2008,11,20,13,58,10.30
2008,11,20,13,59,10.30
2008,11,20,14,00,10.30
2008,11,20,14,01,10.30
2008,11,20,14,02,10.30
2008,11,20,14,03,10.30
2008,11,20,14,04,10.20
2008,11,20,14,05,10.20
2008,11,20,14,06,10.20
2008,11,20,14,07,10.20
2008,11,20,14,08,10.20
2008,11,20,14,09,10.20
2008,11,20,14,10,10.20
2008,11,20,14,11,10.20
2008,11,20,14,12,10.20
2008,11,20,14,13,10.20
2008,11,20,14,14,10.20
2008,11,20,14,15,10.20
2008,11,20,14,16,10.20
2008,11,20,14,17,10.20
2008,11,20,14,18,10.20
2008,11,20,14,19,10.20
2008,11,20,14,20,10.30
2008,11,20,14,21,10.30
2008,11,20,14,22,10.30
2008,11,20,14,23,10.30
2008,11,20,14,24,10.30
2008,11,20,14,25,10.30
2008,11,20,14,26,10.40
2008,11,20,14,27,10.40
2008,11,20,14,28,10.40
2008,11,20,14,29,10.40
2008,11,20,14,30,10.40
2008,11,20,14,31,10.40
2008,11,20,14,32,10.40
2008,11,20,14,33,10.40
2008,11,20,14,34,10.40
2008,11,20,14,35,10.40
2008,11,20,14,36,10.30
2008,11,20,14,37,10.30
2008,11,20,14,38,10.30
2008,11,20,14,39,10.20
2008,11,20,14,40,10.20
2008,11,20,14,41,10.20
2008,11,20,14,42,10.10
2008,11,20,14,43,10.10
2008,11,20,14,44,10.10
2008,11,20,14,45,10.10
2008,11,20,14,46,10.10
2008,11,20,14,47,10.00
2008,11,20,14,48,10.00
2008,11,20,14,49,10.00
2008,11,20,14,50,10.00
2008,11,20,14,51,10.00
2008,11,20,14,52,10.10
2008,11,20,14,53,10.10
2008,11,20,14,54,10.10
2008,11,20,14,55,10.10
2008,11,20,14,56,10.10
2008,11,20,14,57,10.10
2008,11,20,14,58,10.10
2008,11,20,14,59,10.10
2008,11,20,15,00,10.00
2008,11,20,15,01,10.00
2008,11,20,15,02,9.90
2008,11,20,15,03,9.90
2008,11,20,15,04,9.80
2008,11,20,15,05,9.70
2008,11,20,15,06,9.70
2008,11,20,15,07,9.60
2008,11,20,15,08,9.60
2008,11,20,15,09,9.60
2008,11,20,15,10,9.50
2008,11,20,15,11,9.50
2008,11,20,15,12,9.40
2008,11,20,15,13,9.40
2008,11,20,15,14,9.40
2008,11,20,15,15,9.40
2008,11,20,15,16,9.40
2008,11,20,15,17,9.40
2008,11,20,15,18,9.40
2008,11,20,15,19,9.40
2008,11,20,15,20,9.40
2008,11,20,15,21,9.40
2008,11,20,15,22,9.40
2008,11,20,15,23,9.40
2008,11,20,15,24,9.40
2008,11,20,15,25,9.40
2008,11,20,15,26,9.40
2008,11,20,15,27,9.40
2008,11,20,15,28,9.40
2008,11,20,15,29,9.40
2008,11,20,15,30,9.40
2008,11,20,15,31,9.40
2008,11,20,15,32,9.40
2008,11,20,15,33,9.40
2008,11,20,15,34,9.40
2008,11,20,15,35,9.40
2008,11,20,15,36,9.40
2008,11,20,15,37,9.40
2008,11,20,15,38,9.40
2008,11,20,15,39,9.40
2008,11,20,15,40,9.40
2008,11,20,15,41,9.40
2008,11,20,15,42,9.30
2008,11,20,15,43,9.30
2008,11,20,15,44,9.30
2008,11,20,15,45,9.20
2008,11,20,15,46,9.20
2008,11,20,15,47,9.20
2008,11,20,15,48,9.20
2008,11,20,15,49,9.20
2008,11,20,15,50,9.20
2008,11,20,15,51,9.20
2008,11,20,15,52,9.10
2008,11,20,15,53,9.10
2008,11,20,15,54,9.10
2008,11,20,15,55,9.10
2008,11,20,15,56,9.10
2008,11,20,15,57,9.10
2008,11,20,15,58,9.10
2008,11,20,15,59,9.10
2008,11,20,16,00,9.10
2008,11,20,16,01,9.10
2008,11,20,16,02,9.10
2008,11,20,16,03,9.10
2008,11,20,16,04,9.10
2008,11,20,16,05,9.10
2008,11,20,16,06,9.10
2008,11,20,16,07,9.10
2008,11,20,16,08,9.10
2008,11,20,16,09,9.10
2008,11,20,16,10,9.10
2008,11,20,16,11,9.10
2008,11,20,16,12,9.00
2008,11,20,16,13,9.00
2008,11,20,16,14,9.00
2008,11,20,16,15,8.90
2008,11,20,16,16,8.90
2008,11,20,16,17,8.90
2008,11,20,16,18,8.90
2008,11,20,16,19,8.90
2008,11,20,16,20,8.90
2008,11,20,16,21,8.90
2008,11,20,16,22,8.90
2008,11,20,16,23,8.90
2008,11,20,16,24,8.90
2008,11,20,16,25,8.90
2008,11,20,16,26,8.90
2008,11,20,16,27,8.90
2008,11,20,16,28,8.80
2008,11,20,16,29,8.80
2008,11,20,16,30,8.70
2008,11,20,16,31,8.70
2008,11,20,16,32,8.70
2008,11,20,16,33,8.60
2008,11,20,16,34,8.60
2008,11,20,16,35,8.60
2008,11,20,16,36,8.60
2008,11,20,16,37,8.60
2008,11,20,16,38,8.50
2008,11,20,16,39,8.50
2008,11,20,16,40,8.40
2008,11,20,16,41,8.40
2008,11,20,16,42,8.40
2008,11,20,16,43,8.40
2008,11,20,16,44,8.30
2008,11,20,16,45,8.30
2008,11,20,16,46,8.30
2008,11,20,16,47,8.30
2008,11,20,16,48,8.20
2008,11,20,16,49,8.20
2008,11,20,16,50,8.20
2008,11,20,16,51,8.20
2008,11,20,16,52,8.10
2008,11,20,16,53,8.10
2008,11,20,16,54,8.10
2008,11,20,16,55,8.00
2008,11,20,16,56,8.00
2008,11,20,16,57,8.00
2008,11,20,16,58,8.00
2008,11,20,16,59,8.00
2008,11,20,17,00,8.00
2008,11,20,17,01,8.00
2008,11,20,17,02,8.00
2008,11,20,17,03,8.00
2008,11,20,17,04,8.00
2008,11,20,17,05,8.10
2008,11,20,17,06,8.10
2008,11,20,17,07,8.20
2008,11,20,17,08,8.30
2008,11,20,17,09,8.40
2008,11,20,17,10,8.50
2008,11,20,17,11,8.70
2008,11,20,17,12,8.80
2008,11,20,17,13,8.90
2008,11,20,17,14,9.00
2008,11,20,17,15,9.00
2008,11,20,17,16,9.10
2008,11,20,17,17,9.10
2008,11,20,17,18,9.10
2008,11,20,17,19,9.20
2008,11,20,17,20,9.20
2008,11,20,17,21,9.30
2008,11,20,17,22,9.30
2008,11,20,17,23,9.30
2008,11,20,17,24,9.40
2008,11,20,17,25,9.40
2008,11,20,17,26,9.50
2008,11,20,17,27,9.50
2008,11,20,17,28,9.50
2008,11,20,17,29,9.50
2008,11,20,17,30,9.60
2008,11,20,17,31,9.60
2008,11,20,17,32,9.60
2008,11,20,17,33,9.60
2008,11,20,17,34,9.60
2008,11,20,17,35,9.60
2008,11,20,17,36,9.60
2008,11,20,17,37,9.60
2008,11,20,17,38,9.60
2008,11,20,17,39,9.60
2008,11,20,17,40,9.60
2008,11,20,17,41,9.60
2008,11,20,17,42,9.60
2008,11,20,17,43,9.50
2008,11,20,17,44,9.40
2008,11,20,17,45,9.40
2008,11,20,17,46,9.30
2008,11,20,17,47,9.40
2008,11,20,17,48,9.40
2008,11,20,17,49,9.40
2008,11,20,17,50,9.50
2008,11,20,17,51,9.50
2008,11,20,17,52,9.50
2008,11,20,17,53,9.50
2008,11,20,17,54,9.50
2008,11,20,17,55,9.50
2008,11,20,17,56,9.50
2008,11,20,17,57,9.40
2008,11,20,17,58,9.40
2008,11,20,17,59,9.40
2008,11,20,18,00,9.50
2008,11,20,18,01,9.40
2008,11,20,18,02,9.40
2008,11,20,18,03,9.40
2008,11,20,18,04,9.30
2008,11,20,18,05,9.30
2008,11,20,18,06,9.30
2008,11,20,18,07,9.30
2008,11,20,18,08,9.30
2008,11,20,18,09,9.30
2008,11,20,18,10,9.30
2008,11,20,18,11,9.30
2008,11,20,18,12,9.30
2008,11,20,18,13,9.40
2008,11,20,18,14,9.40
2008,11,20,18,15,9.40
2008,11,20,18,16,9.30
2008,11,20,18,17,9.30
2008,11,20,18,18,9.30
2008,11,20,18,19,9.30
2008,11,20,18,20,9.30
2008,11,20,18,21,9.30
2008,11,20,18,22,9.40
2008,11,20,18,23,9.40
2008,11,20,18,24,9.40
2008,11,20,18,25,9.40
2008,11,20,18,26,9.40
2008,11,20,18,27,9.40
2008,11,20,18,28,9.40
2008,11,20,18,29,9.40
2008,11,20,18,30,9.40
2008,11,20,18,31,9.40
2008,11,20,18,32,9.40
2008,11,20,18,33,9.40
2008,11,20,18,34,9.40
2008,11,20,18,35,9.40
2008,11,20,18,36,9.40
2008,11,20,18,37,9.50
2008,11,20,18,38,9.60
2008,11,20,18,39,9.60
2008,11,20,18,40,9.60
2008,11,20,18,41,9.60
2008,11,20,18,42,9.60
2008,11,20,18,43,9.60
2008,11,20,18,44,9.70
2008,11,20,18,45,9.70
2008,11,20,18,46,9.70
2008,11,20,18,47,9.70
2008,11,20,18,48,9.70
2008,11,20,18,49,9.70
2008,11,20,18,50,9.70
2008,11,20,18,51,9.70
2008,11,20,18,52,9.70
2008,11,20,18,53,9.70
2008,11,20,18,54,9.70
2008,11,20,18,55,9.70
2008,11,20,18,56,9.80
2008,11,20,18,57,9.80
2008,11,20,18,58,9.80
2008,11,20,18,59,9.80
2008,11,20,19,00,9.80
2008,11,20,19,01,9.80
2008,11,20,19,02,9.80
2008,11,20,19,03,9.80
2008,11,20,19,04,9.80
2008,11,20,19,05,9.80
2008,11,20,19,06,9.80
2008,11,20,19,07,9.70
2008,11,20,19,08,9.70
2008,11,20,19,09,9.70
2008,11,20,19,10,9.60
2008,11,20,19,11,9.60
2008,11,20,19,12,9.60
2008,11,20,19,13,9.60
2008,11,20,19,14,9.60
2008,11,20,19,15,9.60
2008,11,20,19,16,9.60
2008,11,20,19,17,9.60
2008,11,20,19,18,9.60
2008,11,20,19,19,9.60
2008,11,20,19,20,9.60
2008,11,20,19,21,9.60
2008,11,20,19,22,9.60
2008,11,20,19,23,9.60
2008,11,20,19,24,9.60
2008,11,20,19,25,9.60
2008,11,20,19,26,9.60
2008,11,20,19,27,9.60
2008,11,20,19,28,9.60
2008,11,20,19,29,9.60
2008,11,20,19,30,9.60
2008,11,20,19,31,9.60
2008,11,20,19,32,9.60
2008,11,20,19,33,9.60
2008,11,20,19,34,9.60
2008,11,20,19,35,9.60
2008,11,20,19,36,9.50
2008,11,20,19,37,9.50
2008,11,20,19,38,9.50
2008,11,20,19,39,9.50
2008,11,20,19,40,9.50
2008,11,20,19,41,9.50
2008,11,20,19,42,9.60
2008,11,20,19,43,9.50
2008,11,20,19,44,9.50
2008,11,20,19,45,9.50
2008,11,20,19,46,9.40
2008,11,20,19,47,9.40
2008,11,20,19,48,9.40
2008,11,20,19,49,9.40
2008,11,20,19,50,9.40
2008,11,20,19,51,9.40
2008,11,20,19,52,9.40
2008,11,20,19,53,9.40
2008,11,20,19,54,9.40
2008,11,20,19,55,9.40
2008,11,20,19,56,9.40
2008,11,20,19,57,9.40
2008,11,20,19,58,9.40
2008,11,20,19,59,9.40
2008,11,20,20,00,9.40
2008,11,20,20,01,9.40
2008,11,20,20,02,9.40
2008,11,20,20,03,9.40
2008,11,20,20,04,9.40
2008,11,20,20,05,9.50
2008,11,20,20,06,9.50
2008,11,20,20,07,9.50
2008,11,20,20,08,9.50
2008,11,20,20,09,9.50
2008,11,20,20,10,9.50
2008,11,20,20,11,9.50
2008,11,20,20,12,9.60
2008,11,20,20,13,9.60
2008,11,20,20,14,9.60
2008,11,20,20,15,9.60
2008,11,20,20,16,9.60
2008,11,20,20,17,9.60
2008,11,20,20,18,9.60
2008,11,20,20,19,9.60
2008,11,20,20,20,9.60
2008,11,20,20,21,9.60
2008,11,20,20,22,9.60
2008,11,20,20,23,9.50
2008,11,20,20,24,9.50
2008,11,20,20,25,9.40
2008,11,20,20,26,9.40
2008,11,20,20,27,9.40
2008,11,20,20,28,9.30
2008,11,20,20,29,9.30
2008,11,20,20,30,9.30
2008,11,20,20,31,9.30
2008,11,20,20,32,9.30
2008,11,20,20,33,9.20
2008,11,20,20,34,9.20
2008,11,20,20,35,9.20
2008,11,20,20,36,9.20
2008,11,20,20,37,9.10
2008,11,20,20,38,9.00
2008,11,20,20,39,9.00
2008,11,20,20,40,8.90
2008,11,20,20,41,9.00
2008,11,20,20,42,9.00
2008,11,20,20,43,9.00
2008,11,20,20,44,9.00
2008,11,20,20,45,8.90
2008,11,20,20,46,8.90
2008,11,20,20,47,8.80
2008,11,20,20,48,8.80
2008,11,20,20,49,8.80
2008,11,20,20,50,8.80
2008,11,20,20,51,8.70
2008,11,20,20,52,8.70
2008,11,20,20,53,8.80
2008,11,20,20,54,8.80
2008,11,20,20,55,8.80
2008,11,20,20,56,8.80
2008,11,20,20,57,8.70
2008,11,20,20,58,8.70
2008,11,20,20,59,8.70
2008,11,20,21,00,8.70
2008,11,20,21,01,8.80
2008,11,20,21,02,8.90
2008,11,20,21,03,8.90
2008,11,20,21,04,8.90
2008,11,20,21,05,8.80
2008,11,20,21,06,8.80
2008,11,20,21,07,8.80
2008,11,20,21,08,8.70
2008,11,20,21,09,8.70
2008,11,20,21,10,8.70
2008,11,20,21,11,8.70
2008,11,20,21,12,8.70
2008,11,20,21,13,8.70
2008,11,20,21,14,8.80
2008,11,20,21,15,8.80
2008,11,20,21,16,8.80
2008,11,20,21,17,8.80
2008,11,20,21,18,8.80
2008,11,20,21,19,8.80
2008,11,20,21,20,8.80
2008,11,20,21,21,8.80
2008,11,20,21,22,8.80
2008,11,20,21,23,8.90
2008,11,20,21,24,8.90
2008,11,20,21,25,8.90
2008,11,20,21,26,8.90
2008,11,20,21,27,8.90
2008,11,20,21,28,8.90
2008,11,20,21,29,8.80
2008,11,20,21,30,8.70
2008,11,20,21,31,8.70
2008,11,20,21,32,8.70
2008,11,20,21,33,8.60
2008,11,20,21,34,8.60
2008,11,20,21,35,8.60
2008,11,20,21,36,8.60
2008,11,20,21,37,8.60
2008,11,20,21,38,8.60
2008,11,20,21,39,8.60
2008,11,20,21,40,8.60
2008,11,20,21,41,8.70
2008,11,20,21,42,8.60
2008,11,20,21,43,8.60
2008,11,20,21,44,8.60
2008,11,20,21,45,8.60
2008,11,20,21,46,8.60
2008,11,20,21,47,8.60
2008,11,20,21,48,8.50
2008,11,20,21,49,8.50
2008,11,20,21,50,8.50
2008,11,20,21,51,8.50
2008,11,20,21,52,8.50
2008,11,20,21,53,8.50
2008,11,20,21,54,8.40
2008,11,20,21,55,8.40
2008,11,20,21,56,8.40
2008,11,20,21,57,8.50
2008,11,20,21,58,8.50
2008,11,20,21,59,8.50
2008,11,20,22,00,8.40
2008,11,20,22,01,8.50
2008,11,20,22,02,8.60
2008,11,20,22,03,8.60
2008,11,20,22,04,8.50
2008,11,20,22,05,8.50
2008,11,20,22,06,8.60
2008,11,20,22,07,8.60
2008,11,20,22,08,8.60
2008,11,20,22,09,8.60
2008,11,20,22,10,8.70
2008,11,20,22,11,8.70
2008,11,20,22,12,8.70
2008,11,20,22,13,8.80
2008,11,20,22,14,8.90
2008,11,20,22,15,8.90
2008,11,20,22,16,8.90
2008,11,20,22,17,8.90
2008,11,20,22,18,8.90
2008,11,20,22,19,8.80
2008,11,20,22,20,8.80
2008,11,20,22,21,8.70
2008,11,20,22,22,8.70
2008,11,20,22,23,8.70
2008,11,20,22,24,8.70
2008,11,20,22,25,8.70
2008,11,20,22,26,8.70
2008,11,20,22,27,8.80
2008,11,20,22,28,8.80
2008,11,20,22,29,8.80
2008,11,20,22,30,8.80
2008,11,20,22,31,8.80
2008,11,20,22,32,8.70
2008,11,20,22,33,8.70
2008,11,20,22,34,8.70
2008,11,20,22,35,8.70
2008,11,20,22,36,8.70
2008,11,20,22,37,8.70
2008,11,20,22,38,8.70
2008,11,20,22,39,8.80
2008,11,20,22,40,8.80
2008,11,20,22,41,8.80
2008,11,20,22,42,8.80
2008,11,20,22,43,8.80
2008,11,20,22,44,8.80
2008,11,20,22,45,8.80
2008,11,20,22,46,8.70
2008,11,20,22,47,8.70
2008,11,20,22,48,8.60
2008,11,20,22,49,8.60
2008,11,20,22,50,8.60
2008,11,20,22,51,8.60
2008,11,20,22,52,8.50
2008,11,20,22,53,8.50
2008,11,20,22,54,8.40
2008,11,20,22,55,8.50
2008,11,20,22,56,8.60
2008,11,20,22,57,8.60
2008,11,20,22,58,8.60
2008,11,20,22,59,8.60
2008,11,20,23,00,8.60
2008,11,20,23,01,8.60
2008,11,20,23,02,8.60
2008,11,20,23,03,8.60
2008,11,20,23,04,8.60
2008,11,20,23,05,8.60
2008,11,20,23,06,8.60
2008,11,20,23,07,8.60
2008,11,20,23,08,8.60
2008,11,20,23,09,8.60
2008,11,20,23,10,8.60
2008,11,20,23,11,8.60
2008,11,20,23,12,8.60
2008,11,20,23,13,8.60
2008,11,20,23,14,8.60
2008,11,20,23,15,8.60
2008,11,20,23,16,8.50
2008,11,20,23,17,8.50
2008,11,20,23,18,8.50
2008,11,20,23,19,8.50
2008,11,20,23,20,8.50
2008,11,20,23,21,8.40
2008,11,20,23,22,8.40
2008,11,20,23,23,8.40
2008,11,20,23,24,8.30
2008,11,20,23,25,8.20
2008,11,20,23,26,8.10
2008,11,20,23,27,8.00
2008,11,20,23,28,8.00
2008,11,20,23,29,7.90
2008,11,20,23,30,7.90
2008,11,20,23,31,7.90
2008,11,20,23,32,7.80
2008,11,20,23,33,7.80
2008,11,20,23,34,7.80
2008,11,20,23,35,7.70
2008,11,20,23,36,7.70
2008,11,20,23,37,7.70
2008,11,20,23,38,7.60
2008,11,20,23,39,7.60
2008,11,20,23,40,7.60
2008,11,20,23,41,7.60
2008,11,20,23,42,7.60
2008,11,20,23,43,7.50
2008,11,20,23,44,7.50
2008,11,20,23,45,7.50
2008,11,20,23,46,7.50
2008,11,20,23,47,7.40
2008,11,20,23,48,7.40
2008,11,20,23,49,7.40
2008,11,20,23,50,7.50
2008,11,20,23,51,7.50
2008,11,20,23,52,7.60
2008,11,20,23,53,7.60
2008,11,20,23,54,7.70
2008,11,20,23,55,7.70
2008,11,20,23,56,7.70
2008,11,20,23,57,7.60
2008,11,20,23,58,7.60
2008,11,20,23,59,7.60
